Weather History for Truckee-Tahoe, CA

Change the Weather History Date:

Monday, January 7, 2013

  Actual Average Record
Temperature  
Mean Temperature 18 °F -  
Max Temperature 35 °F 37 °F 59 °F (1969)
Min Temperature 1 °F 11 °F -10 °F (1973)
Degree Days  
Heating Degree Days 47    
Moisture  
Dew Point 18 °F    
Average Humidity 88    
Maximum Humidity 100    
Minimum Humidity 60    
Precipitation  
Precipitation 0.00 in - - ()
Sea Level Pressure  
Sea Level Pressure 30.24 in    
Wind  
Wind Speed 2 mph (SSE)    
Max Wind Speed 6 mph    
Max Gust Speed -    
Visibility 6 miles    
Events Fog    
Averages and records for this station are not official NWS values.
T = Trace of Precipitation, MM = Missing Value Source: NWS Daily Summary

Daily Weather History Graph

Daily Weather History Graph

Search for Another Location

Airport:

Trip Planner

Search our weather history database for the weather conditions in past years. The results will help you decide how hot, cold, wet, or windy it might be!

Date:

Astronomy

Jan. 07, 2013 Rise Set
Actual Time 7:20 AM PST 4:53 PM PST
Civil Twilight 6:50 AM PST 5:23 PM PST
Nautical Twilight 6:17 AM PST 5:56 PM PST
Astronomical Twilight 5:44 AM PST 6:29 PM PST
Moon 2:50 AM PST (1/7) 1:08 PM PST (1/7)
Length of Visible Light 10h 32m
Length of Day
9h 33m
Waning Crescent, 21% of the Moon is Illuminated
Jan 7
Waning Crescent
Jan 11
New
Jan 18
First Quarter
Jan 26
Full
Feb 3
Last Quarter

Hourly Weather History & Observations

Time (PST) Temp. Windchill Dew Point Humidity Pressure Visibility Wind Dir Wind Speed Gust Speed Precip Events Conditions
12:15 AM 15.8 °F 8.6 °F 15.8 °F 100% 30.17 in 0.5 mi South 4.6 mph - N/A Fog Light Freezing Fog
12:35 AM 10.4 °F 4.0 °F 8.6 °F 92% 30.18 in 0.5 mi SSE 3.5 mph - N/A Fog Light Freezing Fog
12:55 AM 15.8 °F - 14.0 °F 93% 30.17 in 3.0 mi Calm Calm - N/A   Scattered Clouds
1:15 AM 15.8 °F - 14.0 °F 93% 30.17 in 4.0 mi Calm Calm - N/A   Partly Cloudy
1:35 AM 14.0 °F - 10.4 °F 86% 30.18 in 0.2 mi Calm Calm - N/A Fog Light Freezing Fog
1:55 AM 12.2 °F 6.1 °F 8.6 °F 85% 30.19 in 0.2 mi SSE 3.5 mph - N/A Fog Light Freezing Fog
2:15 AM 8.6 °F - 6.8 °F 92% 30.21 in 0.2 mi Calm Calm - N/A Fog Light Freezing Fog
2:35 AM 8.6 °F - 5.0 °F 85% 30.20 in 0.2 mi Calm Calm - N/A Fog Light Freezing Fog
2:55 AM 10.4 °F - 8.6 °F 92% 30.19 in 0.2 mi Calm Calm - N/A Fog Light Freezing Fog
3:15 AM 8.6 °F - 5.0 °F 85% 30.21 in 0.2 mi Calm Calm - N/A Fog Light Freezing Fog
3:35 AM 6.8 °F - 1.4 °F 79% 30.21 in 0.2 mi Calm Calm - N/A Fog Light Freezing Fog
3:55 AM 8.6 °F - 5.0 °F 85% 30.19 in 0.2 mi Calm Calm - N/A Fog Light Freezing Fog
4:15 AM 8.6 °F - 6.8 °F 92% 30.17 in 0.2 mi Calm Calm - N/A Fog Light Freezing Fog
4:35 AM 8.6 °F -1.3 °F 5.0 °F 85% 30.18 in 8.0 mi ENE 5.8 mph - N/A   Partly Cloudy
4:55 AM 1.4 °F - -2.2 °F 85% 30.20 in 1.5 mi Calm Calm - N/A   Clear
5:15 AM 5.0 °F -4.1 °F 1.4 °F 85% 30.21 in 0.5 mi SSW 4.6 mph - N/A Fog Light Freezing Fog
5:35 AM 8.6 °F -1.3 °F 6.8 °F 92% 30.21 in 10.0 mi WNW 5.8 mph - N/A   Overcast
7:45 AM 10.4 °F - 6.8 °F 85% 30.27 in 8.0 mi Calm Calm - N/A   Overcast
8:45 AM 12.2 °F - 10.4 °F 92% 30.27 in 10.0 mi Calm Calm - N/A   Overcast
9:45 AM 15.8 °F 8.6 °F 12.2 °F 86% 30.28 in 10.0 mi SE 4.6 mph - N/A   Overcast
10:45 AM 19.4 °F 12.8 °F 17.6 °F 93% 30.29 in 10.0 mi SSE 4.6 mph - N/A   Mostly Cloudy
11:45 AM 24.8 °F - 23.0 °F 93% 30.27 in 10.0 mi Calm Calm - N/A   Mostly Cloudy
12:50 PM 26.6 °F - 26.6 °F 100% 30.23 in 10.0 mi Calm Calm - N/A   Mostly Cloudy
1:45 PM 28.4 °F - 26.6 °F 93% 30.23 in 10.0 mi Calm Calm - N/A   Mostly Cloudy
2:55 PM 35.6 °F - 23.0 °F 60% 30.25 in 10.0 mi Calm Calm - N/A   Mostly Cloudy
3:45 PM 33.8 °F - 23.0 °F 65% 30.23 in 10.0 mi Calm Calm - N/A   Mostly Cloudy
4:45 PM 33.8 °F - 23.0 °F 65% 30.24 in 10.0 mi Calm Calm - N/A   Scattered Clouds
4:55 PM 32.0 °F - 23.0 °F 69% 30.24 in 10.0 mi Calm Calm - N/A   Clear
5:15 PM 32.0 °F - 24.8 °F 75% 30.25 in 10.0 mi Calm Calm - N/A   Clear
5:35 PM 32.0 °F - 24.8 °F 75% 30.26 in 10.0 mi Calm Calm - N/A   Scattered Clouds
5:55 PM 32.0 °F - 24.8 °F 75% 30.26 in 10.0 mi Calm Calm - N/A   Mostly Cloudy
6:15 PM 28.4 °F 23.3 °F 24.8 °F 86% 30.26 in 10.0 mi SSE 4.6 mph - N/A   Mostly Cloudy
6:35 PM 28.4 °F - 26.6 °F 93% 30.26 in 10.0 mi Calm Calm - N/A   Mostly Cloudy
6:55 PM 26.6 °F - 24.8 °F 93% 30.27 in 10.0 mi Calm Calm - N/A   Overcast
7:15 PM 28.4 °F 22.2 °F 26.6 °F 93% 30.28 in 10.0 mi NNW 5.8 mph - N/A   Mostly Cloudy
7:35 PM 28.4 °F 24.6 °F 26.6 °F 93% 30.28 in 10.0 mi East 3.5 mph - N/A   Mostly Cloudy
7:55 PM 28.4 °F - 24.8 °F 86% 30.28 in 10.0 mi Calm Calm - N/A   Overcast
8:15 PM 28.4 °F 22.2 °F 26.6 °F 93% 30.28 in 10.0 mi SSW 5.8 mph - N/A   Overcast
8:35 PM 28.4 °F 24.6 °F 26.6 °F 93% 30.27 in 10.0 mi NNW 3.5 mph - N/A   Scattered Clouds
8:55 PM 26.6 °F 22.6 °F 26.6 °F 100% 30.27 in 10.0 mi NNE 3.5 mph - N/A   Clear
9:15 PM 28.4 °F - 26.6 °F 93% 30.28 in 10.0 mi Calm Calm - N/A   Clear
9:35 PM 24.8 °F 17.9 °F 23.0 °F 93% 30.27 in 8.0 mi South 5.8 mph - N/A   Clear
9:55 PM 26.6 °F 21.2 °F 24.8 °F 93% 30.26 in 0.5 mi SSE 4.6 mph - N/A Fog Light Freezing Fog
10:15 PM 26.6 °F - 26.6 °F 100% 30.26 in 0.8 mi Calm Calm - N/A   Mist
10:35 PM 24.8 °F - 24.8 °F 100% 30.26 in 0.2 mi Calm Calm - N/A Fog Light Freezing Fog
10:55 PM 28.4 °F - 28.4 °F 100% 30.28 in 2.5 mi Calm Calm - N/A   Clear
11:15 PM 23.0 °F - 21.2 °F 93% 30.29 in 0.2 mi Calm Calm - N/A Fog Light Freezing Fog
11:35 PM 23.0 °F - 21.2 °F 93% 30.29 in 0.2 mi Calm Calm - N/A Fog Light Freezing Fog
11:55 PM 23.0 °F 15.8 °F 19.4 °F 86% 30.30 in 0.2 mi SE 5.8 mph - N/A Fog Light Freezing Fog